| time (UTC) | temp F | wind direction | speed MPH | gust MPH | rain 1hr in | rain 24hr in | rain mn in | humidity % | barometer mb |
| 20260904094743 | 83 | 315 | 1.0 | 6.0 | 0.00 | 0.00 | 0.00 | 43 | 1020.8 |
| 20260904093244 | 84 | 292 | 0.0 | 6.0 | 0.00 | 0.00 | 0.00 | 43 | 1020.6 |
| 20260904091744 | 84 | 338 | 0.0 | 6.0 | 0.00 | 0.00 | 0.00 | 43 | 1020.6 |
| 20260904090244 | 82 | 315 | 3.0 | 4.0 | 0.00 | 0.00 | 0.00 | 41 | 1021.0 |
| 20260904084743 | 82 | 180 | 1.0 | 4.0 | 0.00 | 0.00 | 0.00 | 40 | 1020.7 |
| 20260904083243 | 80 | 158 | 3.0 | 4.0 | 0.00 | 0.00 | 0.00 | 40 | 1020.7 |
| 20260904081743 | 80 | 202 | 2.0 | 8.0 | 0.00 | 0.00 | 0.00 | 39 | 1020.6 |
| 20260904080242 | 84 | 225 | 0.0 | 1.0 | 0.00 | 0.00 | 0.00 | 38 | 1020.1 |
| 20260904074742 | 84 | 315 | 0.0 | 0.0 | 0.00 | 0.00 | 0.00 | 36 | 1020.0 |
| 20260904073242 | 83 | 270 | 0.0 | 1.0 | 0.00 | 0.00 | 0.00 | 37 | 1019.8 |
| 20260904071743 | 80 | 292 | 1.0 | 3.0 | 0.00 | 0.00 | 0.00 | 41 | 1019.8 |
| 20260904070242 | 79 | 292 | 1.0 | 4.0 | 0.00 | 0.00 | 0.00 | 42 | 1019.6 |
| 20260904064742 | 79 | 292 | 2.0 | 4.0 | 0.00 | 0.00 | 0.00 | 40 | 1019.5 |
| 20260904063242 | 78 | 292 | 3.0 | 6.0 | 0.00 | 0.00 | 0.00 | 39 | 1019.6 |
| 20260904061742 | 78 | 292 | 3.0 | 6.0 | 0.00 | 0.00 | 0.00 | 39 | 1019.1 |
| 20260904060242 | 78 | 292 | 2.0 | 4.0 | 0.00 | 0.00 | 0.00 | 37 | 1019.3 |
| 20260904054742 | 79 | 315 | 3.0 | 3.0 | 0.00 | 0.00 | 0.00 | 36 | 1019.2 |
| 20260904053242 | 80 | 292 | 0.0 | 2.0 | 0.00 | 0.00 | 0.00 | 35 | 1019.3 |
| 20260904051743 | 81 | 292 | 1.0 | 4.0 | 0.00 | 0.00 | 0.00 | 34 | 1019.0 |
| 20260904050242 | 80 | 292 | 3.0 | 4.0 | 0.00 | 0.00 | 0.00 | 35 | 1018.8 |
| 20260904044741 | 83 | 225 | 0.0 | 3.0 | 0.00 | 0.00 | 0.00 | 31 | 1018.7 |
| 20260904043242 | 83 | 225 | 2.0 | 4.0 | 0.00 | 0.00 | 0.00 | 31 | 1018.9 |
| 20260904041743 | 83 | 180 | 1.0 | 2.0 | 0.00 | 0.00 | 0.00 | 31 | 1018.5 |
| 20260904040241 | 80 | 158 | 0.0 | 1.0 | 0.00 | 0.00 | 0.00 | 34 | 1018.7 |
| 20260904034741 | 80 | 158 | 0.0 | 0.0 | 0.00 | 0.00 | 0.00 | 34 | 1018.7 |
| 20260904033242 | 82 | 158 | 0.0 | 2.0 | 0.00 | 0.00 | 0.00 | 32 | 1018.7 |
| 20260904031741 | 83 | 180 | 1.0 | 3.0 | 0.00 | 0.00 | 0.00 | 31 | 1018.9 |
| 20260904030242 | 83 | 158 | 0.0 | 2.0 | 0.00 | 0.00 | 0.00 | 32 | 1019.1 |
| 20260904024742 | 82 | 135 | 0.0 | 1.0 | 0.00 | 0.00 | 0.00 | 32 | 1018.9 |
| 20260904023240 | 82 | 135 | 0.0 | 1.0 | 0.00 | 0.00 | 0.00 | 32 | 1018.7 |
| 20260904021741 | 83 | 135 | 0.0 | 2.0 | 0.00 | 0.00 | 0.00 | 31 | 1018.9 |
| 20260904020240 | 84 | 180 | 1.0 | 3.0 | 0.00 | 0.00 | 0.00 | 31 | 1019.1 |
| 20260904014740 | 84 | 158 | 1.0 | 3.0 | 0.00 | 0.00 | 0.00 | 31 | 1019.3 |
| 20260904013240 | 84 | 158 | 0.0 | 3.0 | 0.00 | 0.00 | 0.00 | 31 | 1019.3 |
| 20260904011742 | 84 | 135 | 1.0 | 2.0 | 0.00 | 0.00 | 0.00 | 32 | 1019.5 |
| 20260904010241 | 81 | 135 | 0.0 | 0.0 | 0.00 | 0.00 | 0.00 | 34 | 1019.7 |
| 20260904004741 | 81 | 135 | 0.0 | 0.0 | 0.00 | 0.00 | 0.00 | 34 | 1019.8 |
| 20260904003240 | 82 | 135 | 0.0 | 0.0 | 0.00 | 0.00 | 0.00 | 33 | 1019.9 |
| 20260904001741 | 83 | 135 | 0.0 | 0.0 | 0.00 | 0.00 | 0.00 | 33 | 1019.8 |
| 20260904000241 | 83 | 135 | 0.0 | 0.0 | 0.00 | 0.00 | 0.00 | 33 | 1019.7 |
| 20260903234741 | 82 | 135 | 0.0 | 0.0 | 0.00 | 0.00 | 0.00 | 34 | 1019.8 |
| 20260903233240 | 83 | 135 | 0.0 | 0.0 | 0.00 | 0.00 | 0.00 | 32 | 1019.9 |
| 20260903231740 | 84 | 135 | 0.0 | 0.0 | 0.00 | 0.00 | 0.00 | 32 | 1020.0 |
| 20260903230240 | 85 | 135 | 0.0 | 0.0 | 0.00 | 0.00 | 0.00 | 32 | 1019.9 |
| 20260903224740 | 85 | 135 | 0.0 | 1.0 | 0.00 | 0.00 | 0.00 | 31 | 1019.9 |
| 20260903223240 | 84 | 135 | 0.0 | 0.0 | 0.00 | 0.00 | 0.00 | 32 | 1019.8 |
| 20260903221740 | 84 | 135 | 0.0 | 0.0 | 0.00 | 0.00 | 0.00 | 31 | 1019.8 |
| 20260903220240 | 85 | 135 | 0.0 | 0.0 | 0.00 | 0.00 | 0.00 | 31 | 1019.8 |
| 20260903214739 | 85 | 90 | 0.0 | 0.0 | 0.00 | 0.00 | 0.00 | 30 | 1020.1 |
| 20260903213240 | 86 | 90 | 0.0 | 0.0 | 0.00 | 0.00 | 0.00 | 30 | 1020.0 |
| 20260903211739 | 87 | 90 | 0.0 | 0.0 | 0.00 | 0.00 | 0.00 | 29 | 1020.1 |
| 20260903210239 | 88 | 90 | 0.0 | 1.0 | 0.00 | 0.00 | 0.00 | 28 | 1020.0 |
| 20260903204740 | 89 | 45 | 0.0 | 0.0 | 0.00 | 0.00 | 0.00 | 28 | 1019.9 |
| 20260903203239 | 91 | 360 | 0.0 | 1.0 | 0.00 | 0.00 | 0.00 | 26 | 1019.7 |
| 20260903201740 | 91 | 292 | 0.0 | 2.0 | 0.00 | 0.00 | 0.00 | 26 | 1019.8 |
| 20260903200240 | 91 | 292 | 1.0 | 1.0 | 0.00 | 0.00 | 0.00 | 28 | 1019.5 |
| 20260903194739 | 91 | 315 | 1.0 | 2.0 | 0.00 | 0.00 | 0.00 | 27 | 1019.3 |
| 20260903193240 | 91 | 315 | 1.0 | 3.0 | 0.00 | 0.00 | 0.00 | 26 | 1019.2 |
| 20260903191740 | 90 | 270 | 0.0 | 0.0 | 0.00 | 0.00 | 0.00 | 29 | 1019.1 |
| 20260903190238 | 92 | 270 | 0.0 | 1.0 | 0.00 | 0.00 | 0.00 | 27 | 1018.9 |
| 20260903184739 | 95 | 270 | 0.0 | 0.0 | 0.00 | 0.00 | 0.00 | 25 | 1019.2 |
| 20260903183239 | 98 | 270 | 0.0 | 1.0 | 0.00 | 0.00 | 0.00 | 22 | 1019.1 |
| 20260903181739 | 100 | 158 | 0.0 | 1.0 | 0.00 | 0.00 | 0.00 | 21 | 1019.1 |
| 20260903180239 | 100 | 202 | 0.0 | 4.0 | 0.00 | 0.00 | 0.00 | 21 | 1019.1 |
| 20260903174739 | 100 | 202 | 2.0 | 3.0 | 0.00 | 0.00 | 0.00 | 20 | 1019.2 |
| 20260903173240 | 102 | 248 | 0.0 | 4.0 | 0.00 | 0.00 | 0.00 | 20 | 1019.2 |
| 20260903171739 | 101 | 292 | 3.0 | 6.0 | 0.00 | 0.00 | 0.00 | 20 | 1018.8 |
| 20260903170238 | 101 | 180 | 3.0 | 8.0 | 0.00 | 0.00 | 0.00 | 19 | 1019.2 |
| 20260903164738 | 101 | 158 | 2.0 | 6.0 | 0.00 | 0.00 | 0.00 | 19 | 1019.1 |
| 20260903163239 | 102 | 270 | 1.0 | 4.0 | 0.00 | 0.00 | 0.00 | 19 | 1019.1 |
| 20260903161738 | 102 | 248 | 1.0 | 4.0 | 0.00 | 0.00 | 0.00 | 20 | 1019.0 |
| 20260903160239 | 102 | 180 | 0.0 | 4.0 | 0.00 | 0.00 | 0.00 | 20 | 1019.4 |
| 20260903154739 | 102 | 270 | 2.0 | 9.0 | 0.00 | 0.00 | 0.00 | 20 | 1019.4 |
| 20260903153239 | 102 | 180 | 3.0 | 8.0 | 0.00 | 0.00 | 0.00 | 20 | 1019.4 |
| 20260903151739 | 105 | 180 | 0.0 | 3.0 | 0.00 | 0.00 | 0.00 | 19 | 1019.4 |
| 20260903150238 | 104 | 180 | 2.0 | 6.0 | 0.00 | 0.00 | 0.00 | 19 | 1019.5 |
| 20260903144738 | 104 | 202 | 0.0 | 3.0 | 0.00 | 0.00 | 0.00 | 19 | 1019.6 |
| 20260903143238 | 103 | 135 | 1.0 | 3.0 | 0.00 | 0.00 | 0.00 | 20 | 1019.9 |
| 20260903141738 | 102 | 360 | 0.0 | 10.0 | 0.00 | 0.00 | 0.00 | 21 | 1019.9 |
| 20260903140237 | 101 | 202 | 2.0 | 4.0 | 0.00 | 0.00 | 0.00 | 21 | 1019.9 |
| 20260903134452 | 102 | 180 | 3.0 | 4.0 | 0.00 | 0.00 | 0.00 | 22 | 1020.0 |
| 20260903132951 | 99 | 270 | 0.0 | 8.0 | 0.00 | 0.00 | 0.00 | 23 | 1020.3 |
| 20260903131452 | 99 | 90 | 2.0 | 4.0 | 0.00 | 0.00 | 0.00 | 23 | 1020.3 |
| 20260903125953 | 99 | 135 | 1.0 | 6.0 | 0.00 | 0.00 | 0.00 | 22 | 1020.3 |
| 20260903124451 | 99 | 338 | 2.0 | 8.0 | 0.00 | 0.00 | 0.00 | 23 | 1020.3 |
| 20260903122951 | 99 | 22 | 1.0 | 6.0 | 0.00 | 0.00 | 0.00 | 23 | 1020.4 |
| 20260903121453 | 100 | 135 | 0.0 | 6.0 | 0.00 | 0.00 | 0.00 | 23 | 1020.6 |
| 20260903115951 | 98 | 135 | 2.0 | 6.0 | 0.00 | 0.00 | 0.00 | 24 | 1020.6 |
| 20260903114450 | 97 | 292 | 3.0 | 4.0 | 0.00 | 0.00 | 0.00 | 24 | 1020.7 |
| 20260903112951 | 96 | 248 | 0.0 | 6.0 | 0.00 | 0.00 | 0.00 | 24 | 1020.8 |
| 20260903111452 | 96 | 180 | 3.0 | 6.0 | 0.00 | 0.00 | 0.00 | 26 | 1020.9 |
| 20260903105951 | 95 | 90 | 0.0 | 9.0 | 0.00 | 0.00 | 0.00 | 25 | 1021.0 |
| 20260903104452 | 95 | 90 | 5.0 | 8.0 | 0.00 | 0.00 | 0.00 | 25 | 1020.9 |
| 20260903102952 | 94 | 315 | 1.0 | 4.0 | 0.00 | 0.00 | 0.00 | 26 | 1020.9 |
| 20260903101450 | 94 | 68 | 1.0 | 4.0 | 0.00 | 0.00 | 0.00 | 26 | 1020.9 |
| 20260903095950 | 95 | 180 | 0.0 | 4.0 | 0.00 | 0.00 | 0.00 | 26 | 1020.9 |